Probability
0 1 2 3 3 3 3 3 3 3 3 2 1 1 1 1 2 3 2 1 1 1 1 0 0 0 0 0 0 0 0 0 0 0 0 0 0 0 0 0 0 0 0
0 1 3 3 3 3 3 3 3 3 3 3 2 2 2 2 3 4 4 3 3 2 2 1 1 0 0 0 1 1 0 0 0 0 0 0 0 0 0 0 0 0 0
1 2 4 4 3 3 3 3 4 4 4 4 4 4 5 6 5 5 6 5 4 3 3 3 2 2 2 2 3 2 1 0 0 0 0 0 0 0 0 0 0 0 0
2 3 5 5 4 4 4 4 5 6 6 6 6 6 6 7 7 7 6 5 5 4 3 3 4 5 6 5 4 3 2 1 0 0 0 0 0 0 0 0 0 0 0
3 4 6 6 6 5 5 6 6 6 6 6 6 6 5 5 6 6 6 6 6 5 4 4 4 6 7 6 4 3 3 2 1 0 1 1 1 0 0 0 0 0 0
3 4 5 7 7 6 5 6 6 6 5 4 4 4 4 4 4 4 5 6 5 5 6 5 5 5 5 5 4 3 2 2 1 0 1 2 2 1 1 1 1 0 1
3 4 5 6 6 5 4 4 4 4 3 2 3 3 3 3 3 3 4 5 4 4 6 6 5 5 5 4 4 3 2 2 1 0 1 3 3 2 2 2 1 2 2
3 4 5 6 5 4 3 3 3 3 3 2 3 3 3 3 3 3 3 4 3 4 5 6 6 6 5 4 3 3 3 2 1 0 1 3 3 3 1 1 2 3 4
3 4 5 5 4 3 3 3 3 3 3 3 3 3 3 3 3 3 3 3 3 3 4 5 6 6 4 2 2 3 3 2 1 1 3 4 3 2 1 1 2 3 4
3 3 3 3 3 3 3 3 3 3 3 3 3 3 3 3 3 3 3 3 3 3 3 4 6 5 4 2 2 3 3 3 1 2 4 5 4 3 2 2 3 3 3
3 3 1 1 3 3 3 3 3 3 3 3 3 3 3 2 3 3 3 3 3 3 3 4 5 4 3 3 3 3 3 3 3 3 5 6 6 5 3 3 4 4 3
3 2 1 1 2 3 3 3 3 3 3 3 3 3 3 3 3 3 3 3 3 3 3 4 4 2 2 3 3 3 3 3 3 3 4 5 6 6 4 4 5 4 3
2 1 0 0 1 2 3 3 3 4 3 3 3 3 3 3 3 3 3 3 3 2 2 3 2 2 2 3 3 3 3 3 3 3 3 4 6 6 4 4 4 4 3
1 0 0 0 0 1 2 3 4 4 4 3 3 3 3 3 3 3 3 3 3 2 1 1 1 2 3 3 3 3 3 3 3 3 3 3 5 6 5 4 4 4 4
0 0 0 0 0 0 1 2 3 3 3 3 3 3 3 3 3 3 3 3 3 3 1 0 0 1 2 3 2 2 2 3 3 3 2 2 3 5 5 4 4 5 4
0 0 0 0 0 0 0 1 1 2 3 3 3 3 3 3 3 3 3 3 3 2 1 0 0 1 1 1 1 0 1 1 2 2 2 1 2 3 4 3 4 5 4
0 0 0 0 0 0 0 0 0 1 2 3 3 3 3 3 3 3 3 3 1 1 1 0 0 0 0 0 0 0 0 0 1 1 1 2 2 2 2 2 3 5 5
0 0 0 0 0 0 0 0 0 0 1 1 2 2 2 3 3 3 3 2 1 0 0 0 0 0 0 0 0 0 0 0 0 0 0 1 2 3 2 1 2 4 6
0 0 0 0 0 0 0 0 0 0 0 0 1 1 1 1 2 2 2 1 0 0 0 0 0 0 0 0 0 0 0 0 0 0 0 0 1 2 2 1 1 3 4
0 0 0 0 0 0 0 0 0 0 0 0 0 0 0 0 1 1 1 0 0 0 0 0 0 0 0 0 0 0 0 0 0 0 0 0 0 1 2 2 1 1 1
0 0 0 0 0 0 0 0 0 0 0 0 0 0 0 0 0 0 0 0 0 0 0 0 0 0 0 0 0 0 0 0 0 0 0 0 0 1 2 2 1 0 0
0 0 0 0 0 0 0 0 1 1 0 0 0 0 0 0 0 0 0 0 0 0 0 0 0 0 0 0 0 0 0 0 0 0 0 0 0 0 1 1 0 0 0
0 0 0 0 0 0 0 0 1 1 0 0 0 0 0 0 0 0 0 0 0 0 0 0 0 0 0 0 0 0 0 0 0 0 0 0 0 0 0 0 0 0 0
0 0 0 0 0 0 0 0 1 1 0 0 0 0 0 0 0 0 0 0 0 0 0 0 0 0 0 0 0 0 0 0 0 0 0 0 0 0 0 0 0 0 0
0 0 0 0 0 0 0 0 0 0 0 0 0 0 0 0 0 0 0 0 0 0 0 0 0 0 0 0 0 0 0 0 0 0 0 0 0 0 0 0 0 0 0
0 0 0 0 0 0 0 0 0 0 1 1 1 0 0 0 0 0 0 0 0 0 0 0 0 0 0 0 0 0 0 0 0 0 0 0 0 0 0 0 0 0 0
Wind_Speed
2 1 1 3 4 5 7 7 8 9 9 10 11 11 11 12 12 12 12 12 12 12 13 13 14 14 14 14 14 14 14 13 13 13 13 13 13 13 13 11 8 10 13
2 2 1 2 4 6 7 7 8 9 9 10 11 11 12 12 12 12 12 12 12 12 13 13 14 14 14 14 14 14 14 13 12 11 9 10 12 12 12 11 11 9 12
4 3 3 3 5 6 7 8 9 9 10 10 11 11 11 12 12 12 12 12 12 12 13 13 13 13 13 13 13 13 13 13 11 9 6 7 10 11 11 11 11 11 11
4 3 3 4 6 7 8 8 9 9 10 10 11 11 12 12 12 13 13 13 12 12 12 12 12 13 13 13 13 13 13 12 11 7 6 7 8 10 10 11 10 10 10
4 3 4 5 7 8 8 9 9 10 10 11 11 12 12 12 12 13 13 13 12 12 12 12 12 12 12 12 13 12 12 11 9 7 7 7 7 10 9 9 9 10 10
5 4 5 6 7 8 9 9 10 10 10 11 12 12 12 12 13 13 13 13 13 12 12 12 12 12 12 12 12 12 12 10 6 7 7 7 7 10 10 9 8 9 9
5 4 5 6 7 8 9 10 10 10 10 11 11 12 12 12 13 13 13 13 13 12 12 12 12 12 12 12 12 12 12 10 7 7 7 7 9 10 10 10 9 9 8
5 4 5 7 7 8 9 10 10 10 10 11 11 12 12 12 12 13 13 13 13 13 12 12 12 12 12 12 12 12 11 9 6 7 6 7 10 10 10 10 10 9 9
5 5 4 5 6 8 9 9 10 10 10 11 11 11 11 12 12 13 13 13 13 13 13 12 12 12 11 12 12 11 11 9 6 5 6 6 9 9 9 9 9 9 9
5 5 4 5 5 5 6 8 9 10 10 10 11 11 11 11 11 12 12 12 12 12 12 12 12 11 11 11 11 10 9 6 6 6 5 7 10 9 8 8 8 8 8
4 4 4 4 4 5 5 7 7 8 9 8 8 9 7 6 6 7 11 12 12 11 11 11 11 10 8 9 9 9 6 4 6 5 5 9 9 9 8 8 8 8 7
5 4 3 4 4 4 4 4 4 4 4 4 4 5 4 4 5 6 9 11 11 10 10 10 9 7 5 4 5 5 4 5 4 4 6 10 9 9 8 8 8 8 7
6 5 4 4 4 4 3 3 2 2 3 3 4 4 4 4 3 4 3 4 5 6 5 5 5 4 4 4 4 4 4 4 3 3 6 10 9 9 8 8 7 7 7
6 5 4 4 4 4 3 3 3 2 2 2 3 4 3 2 3 3 3 3 3 3 4 4 3 5 4 4 5 4 4 3 3 3 5 9 9 9 8 8 7 7 7
6 6 5 4 4 4 4 3 3 2 3 3 2 3 3 3 3 3 3 3 3 3 3 3 3 4 4 4 4 4 4 4 4 3 3 8 9 9 9 8 8 8 8
7 6 6 5 5 4 4 3 2 2 3 3 3 4 4 3 3 2 3 3 3 3 3 3 4 3 3 3 4 4 4 3 3 3 3 4 7 9 9 9 8 8 8
8 7 6 6 5 5 4 4 3 2 3 3 3 4 4 4 3 3 2 3 3 3 3 3 3 3 3 3 3 4 3 3 3 3 3 3 3 7 9 9 9 8 8
8 7 7 5 6 5 4 4 3 3 3 3 3 3 4 4 3 3 2 2 2 2 2 2 3 3 3 3 3 3 2 2 3 3 3 3 3 3 5 8 8 8 7
8 8 7 7 6 5 4 3 3 3 3 3 3 3 3 4 3 3 2 2 2 2 2 2 2 2 3 3 3 3 2 2 2 2 2 3 4 4 4 5 7 7 7
8 8 8 7 7 6 4 4 3 3 3 2 2 3 3 3 3 2 2 2 2 2 2 2 3 2 2 2 2 2 2 1 1 2 2 3 3 4 4 5 4 4 6
8 9 8 8 7 6 4 4 3 3 3 2 2 3 3 3 2 2 2 2 1 2 2 2 2 2 2 2 2 2 1 0 1 2 2 2 3 4 4 4 4 3 3
9 9 9 8 8 7 5 4 3 3 2 2 2 2 2 2 2 1 1 1 1 1 2 2 2 1 2 2 2 2 1 1 0 1 1 2 3 3 4 4 4 4 4
10 10 8 8 8 7 6 4 4 3 3 2 2 2 2 1 2 1 1 1 1 1 1 1 1 1 1 1 2 2 2 2 2 1 1 1 3 3 3 4 4 4 4
9 9 9 8 8 7 7 6 6 4 4 3 3 2 2 2 1 1 0 0 0 0 0 1 1 1 1 1 1 2 3 2 3 2 2 2 3 4 4 4 4 4 4
9 8 8 8 8 8 7 7 6 5 4 3 3 3 2 2 2 1 1 1 1 1 1 1 1 2 2 2 2 2 2 2 3 3 4 4 3 3 3 4 3 3 4
8 8 8 8 8 8 7 7 7 6 5 5 4 4 3 2 2 2 2 1 1 1 2 2 2 2 2 3 2 2 3 3 3 3 5 5 5 4 4 3 4 3 3
Wind_Direction
137 96 344 25 53 71 73 72 72 70 72 73 71 71 69 68 67 67 66 64 62 62 64 63 61 59 58 58 58 59 60 62 62 61 61 63 65 68 68 64 66 76 74
139 139 87 53 71 77 78 77 76 74 72 72 72 71 70 68 68 67 66 65 63 62 63 63 62 59 58 57 57 57 59 59 59 57 59 70 64 63 66 62 53 68 74
125 123 121 85 82 80 82 83 81 79 76 73 72 71 71 70 68 66 65 64 62 62 62 62 62 60 59 58 58 57 57 57 54 48 50 71 71 62 64 62 61 68 71
123 120 111 91 92 88 86 85 84 82 80 75 72 70 70 70 68 66 64 63 61 61 62 61 60 59 59 59 58 57 57 54 46 34 56 58 63 60 61 63 62 64 67
122 114 102 92 97 91 87 84 84 83 80 76 73 70 68 69 68 67 64 62 61 61 61 60 59 58 58 58 57 56 56 52 44 48 57 54 55 53 58 62 62 63 65
125 115 107 93 97 94 89 85 83 83 79 75 72 69 66 66 66 64 62 59 59 59 60 60 59 58 57 57 55 53 51 43 46 56 54 51 53 51 53 57 60 61 62
125 112 111 100 97 95 91 87 82 82 78 75 72 70 67 64 64 62 60 59 58 58 58 59 57 57 56 55 53 50 44 34 49 53 50 51 48 49 52 55 55 56 59
118 112 108 105 96 92 89 86 83 84 79 75 72 70 68 65 64 61 59 57 56 57 58 57 57 56 54 53 52 48 39 29 49 50 50 51 44 45 52 54 53 54 58
115 112 106 112 107 94 86 84 83 81 80 76 73 70 67 63 62 61 58 55 54 53 54 54 54 53 53 53 49 45 39 29 40 45 43 44 38 42 47 50 51 52 55
115 113 107 104 105 105 100 85 80 78 76 74 71 68 67 65 62 60 58 55 52 50 49 49 50 50 51 51 46 39 30 29 43 43 39 38 36 40 42 46 49 53 57
121 117 115 108 103 101 100 90 85 79 75 76 71 67 65 67 65 62 56 53 52 50 48 46 45 45 47 53 44 31 26 36 41 39 37 27 33 37 42 46 49 51 55
150 137 124 116 112 108 100 97 89 83 80 75 75 76 70 66 60 61 58 52 50 47 47 43 41 38 28 43 45 29 34 34 38 40 37 25 29 34 39 44 47 49 50
161 147 135 124 120 116 109 101 90 81 78 76 77 76 77 72 67 60 60 55 48 40 39 38 35 33 32 31 29 34 33 31 35 37 39 27 28 32 35 39 43 45 49
160 155 140 130 124 115 109 104 99 90 82 75 77 75 76 75 64 59 55 46 41 33 28 26 23 28 28 32 31 31 31 30 32 34 40 30 30 31 33 35 39 42 44
163 158 148 141 131 122 114 105 98 96 88 83 74 72 70 75 70 65 57 47 40 30 27 23 21 20 18 22 28 25 24 26 30 30 42 38 31 29 30 31 37 39 37
170 163 155 151 139 129 123 117 110 101 92 87 77 71 71 70 68 65 61 49 40 28 23 17 18 14 13 13 18 17 15 20 24 27 29 43 40 31 26 25 29 31 29
173 165 159 153 143 137 130 126 117 106 103 93 83 75 73 72 73 68 64 55 40 27 24 21 20 14 15 12 13 12 10 16 21 28 27 25 37 39 31 23 22 26 26
172 167 162 154 151 146 139 130 125 117 108 94 85 81 73 72 71 72 64 55 38 30 24 24 17 12 11 1 1 3 2 8 17 24 32 29 22 24 33 25 16 17 19
175 169 164 161 156 150 145 139 128 118 107 98 91 84 77 71 70 77 67 55 43 37 32 20 19 10 7 0 353 352 352 359 11 16 29 28 19 15 16 21 16 13 13
175 171 168 163 158 151 150 146 134 122 113 103 97 87 85 76 67 76 76 60 48 43 36 24 16 17 10 1 352 351 348 358 15 25 21 22 17 10 6 3 0 8 13
177 174 171 168 165 163 164 163 159 152 137 122 108 99 92 86 79 76 76 75 51 49 40 26 15 12 20 9 349 347 350 24 40 21 12 3 7 2 352 355 349 349 348
182 180 176 175 174 176 173 170 171 158 149 134 118 112 97 88 80 70 74 69 49 42 45 32 19 2 4 6 335 309 295 225 173 336 340 340 349 346 344 347 347 347 338
185 183 180 178 176 178 171 161 151 148 148 152 150 134 113 104 96 77 73 94 77 46 37 17 4 342 327 343 348 316 297 290 319 251 293 316 333 331 332 336 340 340 333
186 181 180 179 178 177 174 177 174 176 176 173 170 160 153 146 142 135 175 167 148 48 311 297 313 310 295 299 310 321 311 309 285 290 257 280 308 312 314 320 328 330 329
181 179 179 179 180 180 182 184 186 189 183 165 165 168 168 166 173 167 198 205 212 244 273 275 276 283 278 279 289 295 283 272 268 270 284 291 288 290 301 306 307 313 320
177 176 177 179 181 182 186 190 195 193 185 178 178 179 180 180 186 185 208 220 232 242 253 261 261 263 264 266 267 268 272 270 276 276 280 290 291 292 292 292 295 300 305